Location: Franzen
(48.6167°N, 15.3833°E)
Time: 16:11:17
(UTC+00:00)

Vanguard 2 Rocket - All Passes

Search period start: 28 July 2021 00:00
Search period end: 07 August 2021 00:00
Orbit: 554 x 3325 km, 32.9° (Epoch: 27 July)

Date Brightness Start Highest point End Pass type
(mag) Time Alt. Az. Time Alt. Az. Time Alt. Az.
28 Jul - 09:51:44 10° SW 09:55:08 17° S 09:59:34 10° SE daylight
28 Jul - 12:03:54 10° SW 12:07:44 15° SSW 12:12:36 10° SSE daylight
29 Jul - 08:53:27 10° SSW 08:55:56 14° S 08:58:54 10° SE daylight
29 Jul - 11:04:47 10° SW 11:08:10 15° S 11:12:26 10° SSE daylight
30 Jul - 07:55:47 10° S 07:56:49 11° SSE 07:57:55 10° SSE daylight
30 Jul - 10:05:59 10° SW 10:08:46 14° S 10:12:10 10° SSE daylight
31 Jul - 09:07:25 10° SSW 09:09:31 13° S 09:11:56 10° SSE daylight
01 Aug - 08:09:11 10° S 08:10:21 11° S 08:11:37 10° SSE daylight
01 Aug - 10:21:46 10° SSW 10:22:25 10° S 10:23:06 10° S daylight
02 Aug - 09:22:55 10° S 09:23:08 10° S 09:23:22 10° S daylight
